WESTFORD NEEDLES, 702

Orbit data source: Space-Track

WESTFORD NEEDLES, 702 is space debris in LEO originally from a launch on Thu, 09 May 1963 UTC launched from the Air Force Western Test Range (AFWTR). Debris objects in space refer to the collection of defunct objects orbiting the Earth. Examples of debris include non-operational satellites, rocket bodies, and fragments generated from explosions, collisions, or faulty payload assembly.

Loading next visibility...
WESTFORD NEEDLES details
Identifier
702, 1963-014H
Orbit
LEO
Last TLE update4 hours ago
Origin
Flag of USUSAF SSD (US)
ManufacturerUnknown
MissionSpacecraft
Bus & MotorUnknown
MassUnknown
Launch date (UTC)
1963-05-09 (62 years ago)
Launch vehicleUnknown
Launch site
Air Force Western Test Range (AFWTR)
Object type
Payload
Rocket body
Debris
Shape & HBRUnknown
Radar Cross SectionMedium (>0.1 m² and <1 m²)

Expand to show TLE details & history

TLE from 4 hours ago
0 WESTFORD NEEDLES
1 00702U 63014H   25018.59765642  .00000013  00000-0  45406-2 0  9998
2 00702  87.3199 238.6018 0154907 200.3877 159.0745  8.65668421949749
Epoch: 2025-01-18T14:20Z
Definitive object data (Epoch: 2025-01-18T14:20:37.514Z)
Latitude-0.00001°
Longitude-94.79916°
Altitude3,788.559 km
Speed6.217 km/s
True Right ascension15h 54m 24s
True Declination0° 00' 00"
Sunlit
Object was in daylight at TLE epoch
Visualization TLE readout
Latitude36.35804°
Longitude83.21838°
Altitude3,558.411 km
Speed6.364 km/s
Apparent Right ascension05h 01m 11s
Apparent Declination8° 41' 50"
Sunlit
Object is in daylight
Visualization observer readout
Local Sidereal Time19:07:29
Azimuth38.258° NE
Elevation-33.292°
Doppler factor1
Orbital elements
Apogee altitude3,794.081 km
Perigee altitude3,483.739 km
Semi-major axis10,017.047 km
Eccentricity0.0154907
Inclination87.3199°
RAAN238.6018°
Arg. of periapsis200.3877°
True anomaly159.6972°
Mean anomaly159.0745°
Eccentric anomaly159.38697°
Mean motion2.16488 °/min
BSTAR0.0045406
Orbital period166.29 mins
Loading maneuver chart data...

WESTFORD NEEDLES Visibility forecast

Observer location: undefined°, undefined

Span
Click to sort rows by Start time (UTC) header in descending order
Start Az.
Max El. time (UTC)
Max El. Az.
Max El.
End time (UTC)
End Az.
23 mins2025-01-18 23:28:21.047Z13.025° NNE2025-01-18 23:40:21.047Z54.799° ENE17.881°2025-01-18 23:51:21.047Z94.417° ESE
35 mins2025-01-19 02:14:21.047Z359.581° N2025-01-19 02:32:21.047Z103.757° ESE44.526°2025-01-19 02:49:21.047Z175.97° S
26 mins2025-01-19 05:02:21.047Z344.088° N2025-01-19 05:15:21.047Z295.91° NW25.33°2025-01-19 05:28:21.047Z247.246° WSW
29 mins2025-01-19 12:39:21.047Z117.813° SE2025-01-19 12:53:21.047Z66.756° ENE28.522°2025-01-19 13:08:21.047Z12.839° NNE
37 mins2025-01-19 15:19:21.047Z188.786° SSW2025-01-19 15:37:21.047Z274.767° WNW43.908°2025-01-19 15:56:21.047Z0.177° NNE
|